www.pogodaiklimat.ru

Погода и климат >> Архив погоды >> Парагвай >> Paraguari


ПОГОДА в Paraguari

  • Прогноз погоды в Paraguari
  • Монитор погоды в Paraguari
  • Климат города

АРХИВ ПОГОДЫ в Paraguari

Время (UTC), дата Ветер
(напр.,м/с)
 
Видим.   Явления Облачность Т
(С)
Тd
(С)
f
(%)
Тe
(С)
Тes
(С)
Комфортность P
(гПа)
Po
(гПа)
Тmin
(С)
Tmax
(С)
R
(мм)
R24
(мм)
S
(см)
12 11.10 В 3 20 км ясно +21.4 +18.3 83 +26 +31 душно 1014.3 1000.7 +17.4 20
15 11.10 штиль 0 20 км 5/5 1200 м
[Cu hum]
+26.8 +22.5 77 +35 +48 очень
душно
1014.3 1001.0
18 11.10 В 2 20 км 5/5 1200 м
[Cu med, cong]
+30.6 +23.9 67 +42 +49 опасность
перегрева
1012.5 999.4
21 11.10 штиль 0 20 км 5/5 1200 м
[Cu med, cong]
+28.8 +21.9 66 +37 +38 очень
душно
1011.5 998.3
00 12.10 штиль 0 20 км ясно +26.8 +22.5 77 +35 +35 очень
душно
1011.8 998.5 +30.6
03 12.10 штиль 0 20 км ясно +24.8 +22.2 85 +32 +32 очень
душно
1012.1 998.8
06 12.10 штиль 0 20 км ясно +23.4 +21.4 89 +32 +32 очень
душно
1012.6 999.2
09 12.10 штиль 0 20 км 8/0 1500 м
[Ac und]
+22.6 +20.3 87 +29 +29 очень
душно
1012.8 999.4
12 12.10 С 2 20 км 5/0 1500 м
[Ac und]
+25.2 +21.9 82 +32 +37 очень
душно
1013.4 1000.0 +21.4
15 12.10 С 3 20 км 5/0 1500 м
[Ac und]
+28.4 +23.4 74 +38 +49 очень
душно
1011.7 998.5
18 12.10 С 2 20 км 5/5 1200 м
[Cu med, cong]
+32.4 +24.8 64 +45 +53 опасность
перегрева
1009.0 996.0
21 12.10 С 1 20 км 5/5 1200 м
[Cu med, cong]
+30.8 +25.4 73 +45 +46 опасность
перегрева
1007.9 994.9
00 13.10 З 2 20 км {дождь} 10/10 300 м
[Sc]
+27.2 +24.1 83 +38 +38 очень
душно
1008.5 995.2 +32.4 4
03 13.10 штиль 0 3000 м слабый дождь 10/10 300 м
[Sc]
+20.4 +19.8 96 +24 +24 комфорт 1009.4 995.8 2
09 13.10 штиль 0 4000 м слабый дождь 10/10 300 м
[Sc]
+17.6 +16.9 96 +18 +18 1011.6 997.9 28
12 13.10 Ю 1 20 км {дождь} 10/10 300 м
[Sc]
+17.8 +16.7 93 +19 +19 1013.6 999.9 +17.6 25
15 13.10 Ю 2 20 км 10/10 300 м
[Sc]
+18.6 +17.7 95 +20 +20 1015.7 1002.0
18 13.10 Ю 1 20 км 10/10 300 м
[Sc]
+18.8 +17.6 93 +21 +21 комфорт 1015.1 1001.4
21 13.10 Ю 2 20 км 10/10 300 м
[Sc]
+17.4 +15.3 87 +18 +18 1015.6 1001.8
00 14.10 Ю 1 20 км 10/10 300 м
[St]
+16.8 +15.3 91 +18 +18 1016.1 1002.3 +27.2
03 14.10 Ю 2 20 км 10/10 300 м
[St]
+15.4 +13.2 87 +15 +15 1016.8 1002.9
06 14.10 штиль 0 20 км 10/10 300 м
[St]
+14.8 +13.3 91 +14 +14 1018.1 1004.2
09 14.10 штиль 0 20 км 10/10 300 м
[St]
+12.6 +11.5 93 +12 +12 1019.6 1005.6
12 14.10 штиль 0 20 км 10/10 300 м
[St]
+15.8 +14.2 90 +16 +16 1017.7 1003.9 +12.6
15 14.10 штиль 0 4000 м слабый дождь 10/10 300 м
[Sc]
+18.4 +17.9 97 +19 +19 1015.5 1001.8 3
18 14.10 штиль 0 20 км {дождь} 10/10 300 м
[Sc]
+17.8 +16.7 93 +18 +18 1013.5 999.8 2
21 14.10 штиль 0 20 км 10/10 300 м
[Sc]
+18.4 +17.7 96 +19 +19 1011.9 998.2
00 15.10 штиль 0 20 км {дождь} 10/10 300 м
[Sc]
+18.8 +17.7 93 +20 +20 1012.5 998.8 +19.4 2
03 15.10 штиль 0 20 км 10/10 300 м
[Sc]
+18.6 +17.7 95 +20 +20 1012.8 999.2
06 15.10 штиль 0 20 км 10/10 300 м
[Sc]
+18.4 +17.7 96 +19 +19 1013.3 999.6
09 15.10 штиль 0 20 км 10/10 300 м
[Sc]
+16.6 +15.8 95 +16 +16 1015.9 1002.1
12 15.10 штиль 0 20 км 5/5 360 м
[Sc]
+20.0 +18.3 90 +23 +28 комфорт 1016.0 1002.4 +15.8 7
15 15.10 Ю 1 20 км 5/5 1200 м
[Cu hum]
+23.8 +16.2 62 +27 +39 жарко 1016.0 1002.5
18 15.10 штиль 0 20 км 5/5 1200 м
[Cu med, cong]
+26.8 +19.5 64 +32 +43 очень
душно
1013.3 1000.0
21 15.10 штиль 0 20 км 4/4 1200 м
[Cu hum]
+26.8 +15.7 51 +30 +31 душно 1011.1 997.8
00 16.10 штиль 0 20 км ясно +22.4 +16.8 71 +27 +27 душно 1010.5 997.0 +27.0
03 16.10 штиль 0 20 км ясно +17.4 +15.0 86 +17 +17 1011.7 998.0
09 16.10 штиль 0 20 км ясно +15.4 +14.7 96 +15 +15 1010.8 997.0
12 16.10 штиль 0 20 км ясно +21.0 +17.8 82 +25 +34 комфорт 1011.0 997.5 +15.0
15 16.10 штиль 0 20 км 4/4 1200 м
[Cu hum]
+27.0 +17.5 56 +31 +47 душно 1010.1 996.7
18 16.10 штиль 0 20 км 4/4 1200 м
[Cu hum]
+29.0 +16.1 46 +32 +45 душно 1007.5 994.4
21 16.10 штиль 0 20 км 4/0 2000 м
[Ac trans]
+29.0 +16.1 46 +32 +34 душно 1005.8 992.7
00 17.10 штиль 0 20 км ясно +24.6 +19.0 71 +30 +30 очень
душно
1006.3 993.0 +31.0
06 17.10 В 4 20 км 8/0 1000 м
[Ac As]
+24.0 +19.3 75 +29 +29 душно 1005.3 992.0
09 17.10 В 3 20 км 10/10 600 м
[Cu Sc]
+23.0 +19.9 83 +30 +30 очень
душно
1005.8 992.4
12 17.10 С 5 20 км 9/5 600 м
[Sc Ac As]
+27.0 +21.0 70 +34 +35 очень
душно
1006.1 992.9 +21.0
15 17.10 С 4 20 км 8/0 2000 м
[Ac und]
+28.0 +20.4 63 +34 +40 очень
душно
1006.7 993.6
18 17.10 С 2 20 км ясно +32.4 +21.5 53 +41 +56 опасность
перегрева
1005.0 992.0
21 17.10 С 4 20 км 5/0 1500 м
[Ac und]
+31.0 +23.8 66 +43 +43 опасность
перегрева
1004.0 991.0
00 18.10 С 4 20 км 5/0 1500 м
[Ac und]
+28.0 +22.1 70 +36 +36 очень
душно
1004.9 991.8 +32.6
03 18.10 С 4 20 км 5/0 1500 м
[Ac und]
+27.0 +21.6 72 +34 +34 очень
душно
1005.8 992.6
09 18.10 С 4 20 км 6/6 1000 м
[Cu Sc Ac As]
+25.0 +22.0 83 +32 +32 очень
душно
1006.3 993.0

 

Местоположение метеостанции Paraguari (Парагвай): широта -25.63 долгота -57.13 высота над уровнем моря 116 м.

В архиве по умолчанию представлена погода в Paraguari за последнюю неделю. Архивные данные за месяц целиком и за предыдущие месяцы, начиная с января 2011 года, Вы можете получить, выбрав интересующий диапазон дат из раскрывающегося списка и нажав кнопку "Ввод!".


*Определитесь, кто Вы:
робот инопланетянин человек

Внимание! Время в таблицах - всемирное. Для получения местного времени необходимо прибавить поправку, которая в Paraguari равна -4 ч.

Смотрите также архив погоды в соседних городах и на ближайших метеорологических станциях:

Погода в Asuncion (Парагвай) (57 км)
Погода в Quyquyhat (Парагвай) (67 км)
Погода в Villarrica (Парагвай) (71 км)
Погода в Coronel Oviedo (Парагвай) (80 км)
Погода в Caazapa (Парагвай) (99 км)
Погода в San Juan Bautista Misiones (Парагвай) (115 км)
Погода в Formosa (Аргентина) (127 км)
Погода в San Estanislao (Парагвай) (130 км)
Погода в San Pedro (Парагвай) (175 км)
Погода в Pilar (Парагвай) (180 км)

Пояснения к столбцам:

Ветер - указаны скорость ветра в м/с - средняя за 10 мин, порывы в срок и между сроками (в фигурных скобках) и направление, откуда дует ветер: С - северный, СВ - северо-восточный, В - восточный, ЮВ - юго-восточный, Ю - южный, ЮЗ - юго-западный, З - западный, СЗ - северо-западный.
Видимость - горизонтальная дальность видимости в метрах или километрах. При видимости от 1 до 10 км при отсутствии осадков обычно наблюдается дымка, при ухудшении видимости до 1 км и менее - туман. В сухую погоду видимость может ухудшаться дымом, пылью или мглою.
Явления - указаны атмосферные явления, наблюдавшиеся в срок или в последний час перед сроком; фигурными скобками обозначены явления, наблюдавшиеся между сроками (за 1-3 часа до срока); квадратными скобками обозначены град или гололедные отложения с указанием их диаметра в мм.
Облачность - указаны через наклонную черту общая и нижняя облачность в баллах и высота нижней границы облаков в метрах; квадратными скобками обозначены формы облаков: Ci - перистые, Cs - перисто-слоистые, Cc - перисто-кучевые, Ac - высококучевые, As - высокослоистые, Sc - слоисто-кучевые, Ns - слоисто-дождевые, Cu - кучевые, Cb - кучево-дождевые. Подробнее классификацию облаков см. в Атласе облаков (PDF).
T - Температура воздуха - температура, измеренная на высоте 2 м над землей.
Td - Температура точки росы - температура, при понижении до которой содержащийся в воздухе водяной пар достигнет насыщения.
f - Относительная влажность воздуха - влажноcть воздуха, измеренная на высоте 2 м над землей.
Te - Эффективная температура - температура, которую ощущает одетый по сезону человек в тени. Характеристика душности погоды. При расчете учитывается влияние влажности воздуха и скорости ветра на теплоощущения человека.
Tes - Эффективная температура на солнце - температура, которую ощущает человек, с поправкой на солнечный нагрев. Характеристика знойности погоды. Зависит от высоты солнца над горизонтом, облачности и скорости ветра. Ночью, в пасмурную погоду, а также при ветре 12 м/с и более поправка равна нулю.
P - Атмосферное давление - приведенное к уровню моря атмосферное давление.
Po - Атмосферное давление - измеренное на уровне метеостанции атмосферное давление.
Tmin - Минимальная температура - минимум температуры воздуха на высоте 2 м над землей.
Tmax - Максимальная температура - максимум температуры воздуха на высоте 2 м над землей.
R - Количество осадков - Количество выпавших осадков за период времени, мм. При наведении курсора мыши на число - период времени, за который выпало указанное количество осадков.
R24 - Количество осадков - Количество выпавших осадков за 24 часа, мм.
S - Снежный покров - Высота снежного покрова, см. При наведении курсора мыши на число - состояние снежного покрова и степень покрытия местности в баллах.